Tracking 34142 objects as of 17-May-2026
HD Live streaming from Space Station
objects crossing your sky now

STARLINK-31818

Track STARLINK-31818 now!
10-day predictions
STARLINK-31818 is classified as:


NORAD ID: 59741
Int'l Code: 2024-090M
Perigee: 488.8 km
Apogee: 491.6 km
Inclination: 43.0 °
Period: 94.3 minutes
Semi major axis: 6861 km
RCS: Unknown
Launch date: May 13, 2024
Source: United States (US)
Launch site: AIR FORCE EASTERN TEST RANGE (AFETR)
Your satellite tracking list
Your tracking list is empty




NASA's NSSDC Master Catalog

Two Line Element Set (TLE):
1 59741U 24090M   26137.31945594 -.00000512  00000-0 -90558-5 0  9992
2 59741  43.0032 156.1222 0001989 264.1608  95.9017 15.27574676113931
Source of the keplerian elements: AFSPC